Lapse_Rate
5.4 5.3 5.3 5.0 4.9 4.7 4.5 4.9 5.4 5.3 5.5 5.6 5.4 5.3 5.2 5.3 5.2 5.4 5.3 5.3 5.3 5.2 5.3 5.3 5.3 5.1 5.1 5.1 5.3 5.2 5.2 5.0 5.0 5.0 4.8 4.6 4.7 4.6
5.6 5.2 5.0 4.9 4.6 4.5 4.5 4.8 5.1 5.2 5.0 5.0 5.2 5.3 5.4 5.4 5.6 5.4 5.3 5.2 5.3 5.2 5.3 5.3 5.3 5.1 5.1 5.1 5.1 5.2 5.1 5.0 4.9 4.9 4.7 4.7 4.5 4.5
5.6 5.4 4.9 4.7 4.5 4.4 4.4 4.6 4.9 5.2 5.3 5.0 5.1 5.0 5.1 5.3 5.4 5.4 5.2 5.1 5.2 5.3 5.3 5.3 5.2 5.1 5.1 4.9 5.1 5.0 4.9 4.9 4.7 4.6 4.5 4.6 4.4 4.3
5.3 5.7 4.9 4.7 4.7 4.2 4.2 4.5 5.0 5.3 5.4 5.4 5.0 5.1 5.3 5.1 5.0 5.0 4.9 5.0 5.2 5.4 5.2 5.2 5.1 5.0 5.0 5.0 5.1 5.0 4.7 4.6 4.5 4.5 4.3 4.1 4.0 4.1
5.3 5.7 5.1 4.7 4.5 4.2 4.6 4.7 5.0 5.3 5.1 5.1 5.2 5.3 5.1 5.0 5.1 5.1 5.2 5.2 5.3 5.3 5.2 5.0 5.0 5.0 5.0 5.0 5.0 4.8 4.7 4.6 4.4 4.3 4.0 4.0 3.9 3.9
5.4 5.3 5.7 5.0 5.0 4.4 4.7 5.1 5.2 5.4 5.1 5.2 5.3 5.3 5.1 5.3 5.5 5.3 5.4 5.0 5.2 5.2 5.0 5.0 5.2 5.0 5.1 4.8 4.9 4.7 4.6 4.6 4.4 4.2 4.0 3.9 3.9 4.0
5.4 5.6 5.5 5.2 4.9 4.7 4.8 5.1 5.5 5.5 5.2 5.2 5.5 5.7 5.9 5.8 6.0 5.4 5.2 5.0 5.2 5.3 5.2 5.2 5.1 5.0 4.9 4.8 4.8 4.6 4.6 4.5 4.3 4.0 4.0 4.1 3.9 4.1
5.2 5.3 5.7 5.3 4.8 4.7 4.5 4.6 5.1 5.4 5.4 5.4 5.7 6.0 5.9 5.5 5.5 5.4 5.2 5.1 5.4 5.1 4.9 4.8 4.7 4.8 5.0 4.8 4.7 4.5 4.5 4.4 4.1 4.2 4.1 3.9 3.9 4.1
5.1 5.7 5.6 5.3 4.6 4.2 4.3 4.4 4.7 4.9 4.6 4.5 4.8 5.1 5.3 5.2 5.0 4.6 4.8 5.0 5.0 4.9 4.8 4.9 5.0 4.8 4.7 4.7 4.8 4.7 4.4 4.2 4.0 3.9 4.0 3.9 4.0 4.3
5.3 5.6 5.5 5.4 5.1 4.5 4.6 4.5 5.0 5.1 4.8 4.6 5.2 5.2 4.7 4.4 4.6 4.7 4.8 4.9 5.0 5.0 5.0 5.2 5.0 4.7 4.6 4.7 4.6 4.5 4.3 4.1 3.9 3.8 4.0 3.9 3.9 4.1
5.3 5.5 5.3 5.7 5.2 4.8 4.7 4.8 4.7 5.2 4.9 5.0 5.0 4.9 4.8 4.8 5.0 5.1 5.2 5.1 5.4 5.2 5.1 5.1 4.9 4.7 4.7 4.7 4.7 4.4 4.2 4.0 3.9 3.9 3.9 3.8 4.0 4.3
5.4 5.5 5.3 5.4 5.6 4.8 4.5 4.8 5.2 5.1 5.0 5.1 5.1 5.3 5.5 5.6 5.5 5.2 4.9 5.1 4.9 4.9 4.9 5.2 4.9 4.7 4.9 4.8 4.5 4.3 4.4 4.1 3.9 3.7 3.8 3.9 4.1 4.4
5.2 5.2 5.2 5.4 5.2 5.0 4.8 4.9 5.3 4.7 4.4 4.5 4.6 4.7 4.9 5.0 4.9 4.8 4.7 4.7 4.6 4.6 4.8 5.0 4.8 4.6 4.7 4.7 4.5 4.4 4.2 4.0 3.8 3.8 3.9 4.0 4.3 4.6
5.2 5.4 5.1 5.5 5.4 4.6 4.8 4.9 4.6 4.3 4.1 3.9 4.2 4.4 4.8 4.8 4.8 4.7 4.6 4.6 4.8 4.9 4.9 5.1 4.7 4.5 4.5 4.6 4.5 4.3 3.9 3.8 3.6 3.8 4.0 4.0 4.3 4.9
5.1 5.4 5.4 5.4 5.7 5.0 5.0 4.9 4.7 4.3 3.7 3.8 4.1 4.3 4.5 4.8 4.4 4.6 4.8 4.7 4.8 4.9 4.9 5.0 4.8 4.4 4.5 4.5 4.3 4.2 3.8 3.7 3.7 3.9 4.1 4.2 4.7 5.1
5.1 5.1 5.3 5.6 5.5 5.0 5.2 5.1 5.0 4.2 4.2 3.9 4.1 4.0 4.4 4.4 4.9 4.9 4.7 4.6 4.6 4.8 4.8 4.8 4.8 4.4 4.2 4.3 4.3 4.1 3.7 3.8 3.9 4.0 4.1 4.5 5.0 5.2
5.3 5.2 5.2 5.4 5.4 5.2 4.8 4.8 5.0 4.4 4.4 4.5 4.8 4.6 4.4 4.4 4.7 4.7 4.6 4.6 4.5 4.6 4.6 4.7 4.8 4.4 4.1 4.2 3.9 3.7 3.8 4.0 4.1 4.1 4.3 4.7 5.1 5.1
5.6 5.5 5.4 5.5 5.5 5.3 5.1 5.0 5.3 4.9 4.4 5.3 5.0 4.8 4.5 4.4 4.7 4.8 4.8 4.7 4.8 4.8 4.7 4.5 4.5 4.3 4.3 4.1 4.0 3.8 3.9 4.0 4.1 4.3 4.5 4.7 5.0 4.9
5.7 5.7 5.5 5.3 5.3 5.2 5.2 5.3 5.2 5.2 5.0 5.4 5.1 4.9 4.5 4.6 4.6 4.9 4.9 5.1 5.0 4.6 4.4 4.7 4.6 4.5 4.4 4.5 4.0 3.8 3.9 4.1 4.3 4.4 4.6 4.8 4.9 4.9
5.6 5.8 5.2 5.0 5.0 5.0 5.1 5.2 5.5 5.4 5.0 5.3 5.0 5.3 5.0 4.8 4.8 4.8 4.9 5.1 4.9 4.6 5.1 5.0 4.9 4.7 4.6 4.4 4.1 3.9 4.1 4.2 4.3 4.4 4.6 4.8 4.9 4.8
6.1 6.0 5.2 5.2 5.1 5.0 5.3 4.9 5.1 5.5 5.3 5.4 5.5 5.5 5.1 5.1 5.1 5.0 5.0 5.2 4.8 4.7 4.9 4.9 4.8 4.5 4.5 4.2 3.9 4.0 4.1 4.3 4.3 4.5 4.8 4.7 4.8 4.7
6.3 6.4 5.2 4.9 4.7 4.9 5.0 4.9 5.0 5.3 5.5 5.3 5.4 4.9 4.6 5.0 5.2 5.3 5.0 5.0 5.0 5.0 5.0 5.0 5.0 4.4 4.1 4.0 4.0 4.1 4.2 4.4 4.4 4.9 4.8 4.8 4.8 4.7
6.7 6.6 5.2 4.9 4.8 4.7 4.9 4.9 5.2 5.1 5.2 5.5 5.4 5.2 5.0 5.0 5.0 5.1 5.0 5.0 5.0 4.9 4.8 5.1 4.4 4.3 4.0 4.0 4.1 4.2 4.4 4.4 4.8 4.9 4.8 4.9 4.6 4.6
Wind_Speed
18 17 14 11 12 12 13 15 16 8 9 6 4 10 18 25 23 19 19 16 15 12 14 15 12 10 9 9 8 8 7 6 6 7 8 10 12 13
14 18 13 12 13 11 13 12 10 5 10 2 3 3 14 18 26 24 21 18 16 16 17 16 12 11 10 9 8 7 6 6 6 6 8 9 11 12
18 19 17 18 12 11 11 11 5 4 8 0 1 4 6 11 13 23 22 21 18 19 17 16 14 12 11 9 8 7 6 5 5 5 7 9 10 12
21 20 18 13 16 14 12 15 9 4 5 6 2 2 4 12 14 13 14 21 23 21 19 17 16 14 12 10 9 7 6 5 4 5 6 8 9 10
23 22 20 19 17 13 13 12 8 4 5 5 4 2 3 7 4 5 6 10 19 22 19 18 17 15 13 11 10 8 6 5 4 3 4 7 8 10
22 23 22 22 20 18 15 15 11 8 5 8 3 6 4 3 5 7 5 2 4 13 18 19 16 15 14 12 10 9 7 5 4 2 3 5 7 8
20 20 21 24 28 25 14 14 14 11 8 8 6 4 4 7 13 6 7 3 2 4 5 9 14 16 15 13 12 10 8 6 4 2 1 3 5 6
17 18 18 20 22 28 25 25 24 18 12 7 7 11 13 11 11 8 5 6 4 11 3 3 10 9 16 15 13 11 10 8 6 3 1 2 4 5
18 17 14 13 20 17 17 19 20 23 22 15 14 13 12 15 14 12 10 8 5 4 5 4 6 3 15 15 14 13 12 10 7 4 1 2 3 4
18 19 18 18 17 18 15 13 13 12 9 9 12 10 8 19 18 10 11 5 4 4 6 3 3 4 9 16 13 13 13 12 9 5 3 2 3 4
17 17 17 18 23 25 17 15 10 6 11 12 14 18 20 27 24 13 8 9 2 3 8 3 3 3 3 5 16 14 15 14 12 8 5 2 3 3
14 14 18 19 26 27 18 17 14 12 11 8 8 15 22 26 31 24 11 11 4 1 4 4 3 4 2 2 10 13 16 13 12 9 4 1 3 4
13 12 11 20 27 28 22 17 16 15 16 10 8 6 7 12 15 15 19 8 6 2 9 5 3 3 2 2 1 6 11 9 8 9 4 1 3 3
15 13 14 25 30 28 19 19 19 18 8 7 8 7 8 7 6 14 17 13 10 3 23 14 4 4 3 2 3 2 3 7 8 6 4 2 2 3
12 15 27 30 30 24 25 21 24 11 10 8 8 7 7 6 14 11 14 14 10 8 19 9 10 4 3 3 3 3 3 3 6 6 5 2 1 2
12 10 13 19 22 14 14 16 10 11 12 11 8 5 7 7 6 3 3 4 3 2 7 7 14 12 3 2 3 4 2 3 5 5 2 1 1 3
14 10 10 9 10 7 7 8 7 9 10 7 8 8 8 8 6 5 5 4 3 4 2 4 14 16 13 5 3 3 4 2 4 4 2 0 2 3
12 11 10 11 12 11 11 10 7 11 9 9 9 10 9 9 9 7 6 3 5 6 4 3 6 4 3 8 8 5 2 3 2 4 2 1 1 2
8 9 10 10 11 11 12 11 12 10 10 9 10 10 10 9 12 9 9 7 6 6 6 6 5 3 3 2 1 2 3 2 3 2 1 1 1 2
11 12 11 11 10 11 11 11 10 8 10 9 10 11 11 12 11 10 10 9 8 6 6 5 5 2 3 5 4 1 2 3 2 2 2 0 3 3
9 11 11 11 10 10 10 9 10 11 11 11 10 11 11 12 11 11 11 16 16 8 9 7 4 13 14 10 4 2 2 5 4 3 2 1 0 1
7 9 9 10 10 11 10 10 9 9 10 10 11 11 11 11 11 12 12 13 11 9 7 7 11 9 3 2 3 5 3 3 5 3 2 2 3 0
8 9 9 9 9 9 9 9 10 10 11 11 10 10 11 11 11 11 12 11 12 10 11 8 6 3 3 3 6 4 4 3 1 2 2 3 1 2
Wind_Direction
166 164 164 160 163 161 168 172 165 160 188 197 160 193 176 186 185 185 186 180 180 180 152 146 151 150 148 136 128 120 107 91 72 56 43 37 29 23
162 162 153 162 161 163 169 174 179 152 172 149 216 145 168 176 187 190 197 188 186 158 143 145 158 162 159 149 143 131 120 94 73 59 47 36 28 21
164 164 160 160 161 161 167 178 161 136 161 151 123 183 147 159 181 189 193 193 180 159 157 159 172 174 170 162 152 144 126 103 84 68 47 37 24 18
165 164 162 156 164 163 169 178 165 135 128 144 147 132 147 171 171 169 182 189 183 173 169 174 182 181 178 171 168 154 139 120 90 73 50 38 25 14
169 166 163 163 165 168 173 176 154 135 134 139 147 142 109 155 119 108 146 160 180 179 178 183 188 188 185 182 176 168 156 138 107 84 59 41 27 13
173 170 166 168 169 172 175 176 158 145 136 146 121 158 151 141 160 169 170 153 169 183 185 188 191 193 194 191 187 180 171 159 142 128 62 37 28 12
177 175 173 172 175 175 169 176 162 157 152 151 157 144 157 171 188 169 184 141 194 167 157 182 189 192 198 199 193 189 186 183 171 144 63 22 25 11
178 178 178 174 175 173 179 177 172 169 165 159 166 180 187 182 183 177 152 172 198 200 134 199 190 194 197 197 193 194 199 198 189 183 159 358 12 354
174 174 170 181 174 170 171 174 178 182 184 175 173 185 179 182 170 175 184 185 185 180 138 186 191 199 207 205 201 200 205 203 198 192 236 305 340 335
174 174 170 171 175 165 160 166 175 176 180 189 186 172 169 173 181 181 174 118 80 118 150 175 161 203 203 216 213 212 211 205 200 199 236 281 324 343
174 170 172 170 170 164 160 159 165 159 154 152 154 150 159 165 162 132 160 161 165 192 195 137 171 149 172 211 217 215 211 206 206 215 241 261 330 352
170 172 175 169 168 166 164 163 166 175 154 131 135 141 155 168 169 176 166 179 146 122 204 139 144 148 188 210 194 204 200 207 213 212 201 255 330 331
164 170 179 167 171 173 168 174 182 160 171 151 137 138 147 164 173 169 173 172 167 190 181 130 152 154 96 136 138 181 180 184 175 166 172 241 329 326
173 174 175 172 176 178 171 166 143 147 143 150 148 157 164 171 163 153 163 160 168 163 170 164 145 155 129 129 159 146 153 181 176 175 207 257 334 343
174 183 173 174 176 180 172 154 144 147 154 162 175 176 176 142 125 110 127 130 103 101 160 168 147 135 123 132 151 151 139 191 179 177 201 231 326 5
142 147 163 175 172 176 159 152 154 160 170 181 179 126 122 141 150 137 128 144 100 57 91 141 153 137 122 98 115 136 129 155 167 187 179 224 221 209
134 131 145 160 160 155 160 161 155 159 164 153 151 148 147 151 155 155 137 143 123 145 120 55 101 102 82 114 97 117 139 123 156 155 145 97 214 195
139 150 159 166 165 164 169 168 168 175 170 157 157 160 163 165 160 163 158 154 145 160 136 158 139 106 75 53 62 121 111 128 142 146 120 100 316 219
150 159 161 171 168 177 176 177 183 184 159 166 166 166 163 160 159 169 171 162 149 154 152 150 159 125 117 137 66 90 131 125 142 134 141 174 196 267
165 166 168 172 173 179 180 182 178 161 168 169 169 166 168 165 165 170 175 168 155 147 149 153 164 146 133 157 146 120 145 125 145 131 161 214 251 283
167 171 170 168 171 178 181 179 180 177 177 172 173 172 171 168 173 171 170 168 156 155 163 164 147 116 107 103 100 129 93 104 121 130 132 110 65 4
160 166 167 169 173 176 175 172 168 168 176 177 176 175 174 174 171 166 167 164 164 154 145 131 129 129 97 124 130 129 132 118 91 99 161 183 154 165
164 165 172 173 173 174 170 171 173 177 181 180 178 173 172 174 170 164 159 156 147 141 142 141 136 101 99 127 131 122 128 122 130 126 89 59 13 287